Tunica, MS

7:29 AM CDT on March 23, 2017 (GMT -0500)
Tunica

Weather History for KUTA - January, 2014

Change the Weather History Date:

Thursday, January 16, 2014

  Actual Average (KAWM) Record (KAWM)
Temperature  
Mean Temperature 40 °F -  
Max Temperature 53 °F 47 °F 66 °F (2012)
Min Temperature 28 °F 29 °F 9 °F (1982)
Degree Days  
Heating Degree Days 24    
Moisture  
Dew Point 28 °F    
Average Humidity 63    
Maximum Humidity 80    
Minimum Humidity 44    
Precipitation  
Precipitation 0.00 in - - ()
Sea Level Pressure  
Sea Level Pressure 30.00 in    
Wind  
Wind Speed 11 mph (SSW)    
Max Wind Speed 22 mph    
Max Gust Speed 25 mph    
Visibility 10 miles    
Events      
Averages and records for this station are not official NWS values.
T = Trace of Precipitation, MM = Missing Value Source: NWS Daily Summary

Daily Weather History Graph

Daily Weather History Graph

Search for Another Location

Airport or City:

Trip Planner

Search our weather history database for the weather conditions in past years. The results will help you decide how hot, cold, wet, or windy it might be!

Date:

Astronomy

Jan. 16, 2014 Rise Set
Actual Time 7:07 AM CST 5:14 PM CST
Civil Twilight 6:40 AM CST 5:42 PM CST
Nautical Twilight 6:09 AM CST 6:13 PM CST
Astronomical Twilight 5:39 AM CST 6:43 PM CST
Moon 6:02 PM CST (1/16) 7:05 AM CST (1/16)
Length of Visible Light 11h 01m
Length of Day
10h 06m
Full, 100% of the Moon is Illuminated
Jan 16
Full
Jan 23
Last Quarter
Jan 30
New
Feb 6
First Quarter
Feb 14
Full

Hourly Weather History & Observations

Time (CST) Temp. Windchill Dew Point Humidity Pressure Visibility Wind Dir Wind Speed Gust Speed Precip Events Conditions
12:15 AM 28.4 °F 22.2 °F 21.2 °F 74% 30.15 in 10.0 mi SSE 5.8 mph - N/A   Clear
12:35 AM 28.4 °F 20.4 °F 21.2 °F 74% 30.14 in 10.0 mi SSE 8.1 mph - N/A   Clear
12:55 AM 28.4 °F 21.2 °F 23.0 °F 80% 30.13 in 10.0 mi SSE 6.9 mph - N/A   Clear
1:15 AM 28.4 °F 21.2 °F 23.0 °F 80% 30.14 in 10.0 mi SSE 6.9 mph - N/A   Clear
1:35 AM 28.4 °F 20.4 °F 23.0 °F 80% 30.14 in 10.0 mi South 8.1 mph - N/A   Clear
1:55 AM 28.4 °F 20.4 °F 23.0 °F 80% 30.13 in 10.0 mi SSE 8.1 mph - N/A   Clear
2:15 AM 28.4 °F 19.7 °F 23.0 °F 80% 30.12 in 10.0 mi SSE 9.2 mph - N/A   Clear
2:35 AM 30.2 °F 21.9 °F 23.0 °F 75% 30.11 in 10.0 mi SSE 9.2 mph - N/A   Scattered Clouds
2:55 AM 30.2 °F 20.8 °F 23.0 °F 75% 30.10 in 10.0 mi SSE 11.5 mph - N/A   Mostly Cloudy
3:15 AM 30.2 °F 21.3 °F 23.0 °F 75% 30.10 in 10.0 mi SSE 10.4 mph - N/A   Mostly Cloudy
3:35 AM 30.2 °F 21.9 °F 23.0 °F 75% 30.10 in 10.0 mi SSE 9.2 mph - N/A   Mostly Cloudy
3:55 AM 32.0 °F 24.8 °F 23.0 °F 69% 30.10 in 10.0 mi South 8.1 mph - N/A   Scattered Clouds
4:15 AM 32.0 °F 25.6 °F 23.0 °F 69% 30.10 in 10.0 mi South 6.9 mph - N/A   Scattered Clouds
4:35 AM 32.0 °F 23.6 °F 23.0 °F 69% 30.09 in 10.0 mi SSE 10.4 mph - N/A   Scattered Clouds
4:55 AM 32.0 °F 24.8 °F 23.0 °F 69% 30.09 in 10.0 mi South 8.1 mph - N/A   Clear
5:15 AM 32.0 °F 23.6 °F 23.0 °F 69% 30.09 in 10.0 mi South 10.4 mph - N/A   Scattered Clouds
5:35 AM 32.0 °F 23.0 °F 24.8 °F 75% 30.08 in 10.0 mi South 11.5 mph - N/A   Scattered Clouds
5:55 AM 32.0 °F 23.0 °F 24.8 °F 75% 30.08 in 10.0 mi South 11.5 mph - N/A   Clear
6:15 AM 32.0 °F 22.5 °F 24.8 °F 75% 30.06 in 10.0 mi South 12.7 mph - N/A   Clear
6:35 AM 32.0 °F 22.5 °F 23.0 °F 69% 30.06 in 10.0 mi South 12.7 mph - N/A   Clear
6:55 AM 32.0 °F 23.6 °F 24.8 °F 75% 30.06 in 10.0 mi South 10.4 mph - N/A   Clear
7:15 AM 32.0 °F 23.6 °F 26.6 °F 80% 30.06 in 10.0 mi South 10.4 mph - N/A   Clear
7:35 AM 32.0 °F 23.0 °F 26.6 °F 80% 30.05 in 10.0 mi South 11.5 mph - N/A   Clear
7:55 AM 32.0 °F 23.0 °F 26.6 °F 80% 30.05 in 10.0 mi South 11.5 mph - N/A   Clear
8:15 AM 33.8 °F 23.9 °F 26.6 °F 75% 30.05 in 10.0 mi South 15.0 mph 19.6 mph N/A   Clear
8:35 AM 35.6 °F 26.6 °F 26.6 °F 70% 30.03 in 10.0 mi South 13.8 mph 20.7 mph N/A   Clear
8:55 AM 35.6 °F 26.6 °F 26.6 °F 70% 30.03 in 10.0 mi South 13.8 mph 19.6 mph N/A   Clear
9:15 AM 35.6 °F 26.6 °F 26.6 °F 70% 30.02 in 10.0 mi South 13.8 mph 21.9 mph N/A   Clear
9:35 AM 37.4 °F 28.2 °F 26.6 °F 65% 30.02 in 10.0 mi South 16.1 mph - N/A   Clear
9:55 AM 37.4 °F 26.9 °F 26.6 °F 65% 30.01 in 10.0 mi South 20.7 mph 24.2 mph N/A   Clear
10:15 AM 41.0 °F 32.2 °F 28.4 °F 61% 30.01 in 10.0 mi SSW 18.4 mph 25.3 mph N/A   Clear
10:35 AM 41.0 °F 32.5 °F 28.4 °F 61% 30.01 in 10.0 mi SSW 17.3 mph 25.3 mph N/A   Clear
10:55 AM 41.0 °F 32.8 °F 30.2 °F 65% 29.99 in 10.0 mi South 16.1 mph - N/A   Clear
11:15 AM 42.8 °F 34.8 °F 30.2 °F 61% 29.97 in 10.0 mi South 17.3 mph 23.0 mph N/A   Clear
11:35 AM 42.8 °F 34.8 °F 30.2 °F 61% 29.95 in 10.0 mi SSW 17.3 mph 20.7 mph N/A   Clear
11:55 AM 44.6 °F 36.9 °F 32.0 °F 61% 29.95 in 10.0 mi SSW 18.4 mph - N/A   Clear
12:15 PM 46.4 °F 39.2 °F 32.0 °F 57% 29.93 in 10.0 mi SSW 18.4 mph 24.2 mph N/A   Clear
12:35 PM 46.4 °F 40.1 °F 32.0 °F 57% 29.91 in 10.0 mi SSW 15.0 mph - N/A   Clear
12:55 PM 50.0 °F - 32.0 °F 50% 29.91 in 10.0 mi SW 21.9 mph 25.3 mph N/A   Clear
1:15 PM 51.8 °F - 32.0 °F 47% 29.90 in 10.0 mi SW 18.4 mph 24.2 mph N/A   Clear
1:35 PM 51.8 °F - 32.0 °F 47% 29.89 in 10.0 mi SSW 18.4 mph - N/A   Clear
1:55 PM 53.6 °F - 32.0 °F 44% 29.89 in 10.0 mi SW 18.4 mph 21.9 mph N/A   Clear
2:35 PM 53.6 °F - 32.0 °F 44% 29.88 in 10.0 mi SW 13.8 mph 21.9 mph N/A   Clear
2:55 PM 53.6 °F - 33.8 °F 47% 29.88 in 10.0 mi SW 12.7 mph - N/A   Clear
3:15 PM 53.6 °F - 33.8 °F 47% 29.88 in 10.0 mi SW 17.3 mph 20.7 mph N/A   Clear
3:35 PM 53.6 °F - 33.8 °F 47% 29.88 in 10.0 mi SW 15.0 mph 19.6 mph N/A   Clear
3:55 PM 53.6 °F - 33.8 °F 47% 29.89 in 10.0 mi SW 15.0 mph - N/A   Clear
4:15 PM 53.6 °F - 33.8 °F 47% 29.89 in 10.0 mi SW 15.0 mph - N/A   Clear
4:35 PM 51.8 °F - 33.8 °F 50% 29.89 in 10.0 mi SW 12.7 mph - N/A   Clear
4:55 PM 51.8 °F - 33.8 °F 50% 29.89 in 10.0 mi SW 12.7 mph - N/A   Clear
5:15 PM 50.0 °F - 33.8 °F 54% 29.90 in 10.0 mi SW 11.5 mph - N/A   Clear
5:35 PM 46.4 °F 41.5 °F 35.6 °F 66% 29.90 in 10.0 mi SSW 10.4 mph - N/A   Clear
5:55 PM 46.4 °F 42.9 °F 35.6 °F 66% 29.91 in 10.0 mi SW 6.9 mph - N/A   Clear
6:15 PM 44.6 °F 40.7 °F 33.8 °F 66% 29.91 in 10.0 mi SW 6.9 mph - N/A   Clear
6:35 PM 46.4 °F 41.5 °F 33.8 °F 62% 29.92 in 10.0 mi WSW 10.4 mph - N/A   Clear
6:55 PM 46.4 °F 41.9 °F 33.8 °F 62% 29.93 in 10.0 mi WSW 9.2 mph - N/A   Clear
7:15 PM 44.6 °F 40.2 °F 33.8 °F 66% 29.93 in 10.0 mi West 8.1 mph - N/A   Scattered Clouds
7:35 PM 46.4 °F 41.1 °F 32.0 °F 57% 29.94 in 10.0 mi West 11.5 mph 17.3 mph N/A   Clear
7:55 PM 46.4 °F 41.5 °F 32.0 °F 57% 29.94 in 10.0 mi West 10.4 mph 16.1 mph N/A   Clear
8:15 PM 46.4 °F 41.1 °F 32.0 °F 57% 29.95 in 10.0 mi WNW 11.5 mph - N/A   Clear
8:35 PM 44.6 °F 40.2 °F 32.0 °F 61% 29.96 in 10.0 mi NW 8.1 mph - N/A   Clear
8:55 PM 42.8 °F 38.0 °F 30.2 °F 61% 29.97 in 10.0 mi NW 8.1 mph - N/A   Clear
9:15 PM 44.6 °F 38.1 °F 28.4 °F 53% 29.97 in 10.0 mi WNW 13.8 mph - N/A   Clear
9:35 PM 44.6 °F 39.7 °F 28.4 °F 53% 29.98 in 10.0 mi NW 9.2 mph - N/A   Clear
9:55 PM 44.6 °F 39.2 °F 28.4 °F 53% 29.98 in 10.0 mi West 10.4 mph - N/A   Clear
10:15 PM 44.6 °F 38.8 °F 26.6 °F 49% 29.99 in 10.0 mi WNW 11.5 mph - N/A   Clear
10:35 PM 44.6 °F 38.8 °F 26.6 °F 49% 29.98 in 10.0 mi WNW 11.5 mph - N/A   Clear
10:55 PM 42.8 °F 37.5 °F 26.6 °F 53% 29.98 in 10.0 mi West 9.2 mph - N/A   Clear
11:15 PM 42.8 °F 38.0 °F 24.8 °F 49% 29.97 in 10.0 mi West 8.1 mph - N/A   Clear
11:35 PM 41.0 °F 35.8 °F 26.6 °F 57% 29.97 in 10.0 mi West 8.1 mph - N/A   Clear
11:55 PM 37.4 °F 31.4 °F 28.4 °F 70% 29.96 in 10.0 mi WSW 8.1 mph - N/A   Clear